    Orbital elements:
    2015 BW92                                                Earth MOID = 0.1934 AU
    Epoch 2014 Dec. 9.0 TT = JDT 2457000.5                  MPC
    M 355.22335              (2000.0)            P               Q
    n   0.23576281     Peri.  135.55639     -0.13609864     -0.95992054
    a   2.5950906      Node   320.29191     +0.76810345     +0.05395265
    e   0.5789620      Incl.   22.55070     +0.62569501     -0.27503031
    P   4.18           H   18.5           G   0.15           U   7
    Residuals in seconds of arc
    150119 703  0.4-  0.6-    150120 C77  0.2-  0.1+    150121 C23  0.5-  0.3-
    150119 703  0.4+  0.1-    150120 C77  0.0   0.0     150121 C23  0.2-  0.1-
    150119 703  0.0   0.3+    150120 C77  0.0   0.1+    150121 C23  0.2+  0.0
    150119 703  0.4+  0.4+    150120 C77  0.1+  0.0     150121 C23  0.1-  0.3-
    150119 703  0.4+  0.3+    150120 C77  0.0   0.1+    150121 033  0.1+  0.2-
    150119 703  0.3+  0.3+    150120 C77  0.1-  0.1+    150121 C23  0.2-  0.2-
    150119 C94  0.5-  0.4+    150120 C23  0.3-  0.2+    150121 033  0.3+  0.3+
    150119 C94  0.2-  0.2-    150120 C23  0.2-  0.2-    150121 C23  0.3+  0.2+
    150119 C94  0.5-  0.2+    150120 C23  0.1+  0.6+    150121 C23  0.2-  0.3-
    150119 958  0.8-  0.8-    150120 C23  0.1+  0.3-    150121 033  0.2+  0.2+
    150119 958  0.4-  1.3-    150120 C23  0.0   0.4+    150121 C23  0.3-  1.1-
    150119 958  0.4-  0.6-    150120 C23  0.2+  0.2+    150121 C23  0.2-  0.5-
    150119 958  0.6-  0.7-    150120 C23  0.2-  0.1-    150121 033  0.1+  0.7+
    150119 J95  0.0   0.2+    150120 C23  0.0   0.0     150121 033  0.1+  0.8+
    150119 J95  0.2+  0.1+    150120 C23  0.2-  0.0     150122 718  0.2+  0.3+
    150119 J95  0.1-  0.0     150120 C23  0.2-  0.1-    150122 718  0.2+  0.1-
    150120 G48  0.2+  0.4+    150120 C23  0.0   0.0     150122 718  0.1-  0.1+
    150120 G48  0.7+  0.4+    150120 C23  0.5-  0.1-    150122 718  0.4+  0.1+
    150120 G48  0.8+  0.3-    150121 C44  0.1-  0.2+    150122 718  0.4+  0.0
    150120 G48  0.7+  0.2+    150121 C44  0.2-  0.2+    150122 291  0.0   0.2+
    150120 U69  0.3+  0.5+    150121 C44  0.3+  0.2+    150122 291  0.2-  0.2-
    150120 U69  0.4+  0.7-    150121 C44  0.1+  0.4-    150122 291  0.1+  0.1-
    150120 U69  0.1-  0.2-    150121 C23  0.3-  0.1+
    
    Ephemeris:
    2015 BW92                a,e,i = 2.60, 0.58, 23                  q = 1.0926
    Date    TT    R. A. (2000) Decl.     Delta      r     Elong.  Phase     V
    2014 12 23    17 31 24.7 +77 05 33   0.3334  1.0954   100.6    62.0    18.5
    ...
    2015 01 07    13 51 27.5 +78 05 30   0.2581  1.0981   109.9    57.4    17.8
    ...
    2015 01 15    11 30 27.3 +71 57 51   0.2223  1.1124   120.3    49.8    17.3
    ...
    2015 01 21    10 25 01.2 +62 41 47   0.2027  1.1288   131.6    40.7    16.9
    2015 01 22    10 16 58.4 +60 48 02   0.2003  1.1319   133.7    38.9    16.8
    2015 01 23    10 09 34.3 +58 49 05   0.1983  1.1352   136.0    37.1    16.8
    ...
    2015 01 29    09 35 54.4 +45 34 49   0.1937  1.1573   150.5    24.8    16.4
    ...
    2015 02 06    09 09 43.9 +27 29 00   0.2105  1.1929   168.3     9.7    16.1
    ...
    2015 02 21    08 49 02.8 +04 26 53   0.3032  1.2746   157.7    17.1    17.3
    
    A. U. Tomatic                (C) Copyright 2015 MPC           M.P.E.C. 2015-B97
    

    Read MPEC 2015-B96 Read MPEC 2015-B98


    MPEC number:

    Enter an MPEC number in one of the following forms:

    • 1997-B01 (the full form)
    • J97B01 (the packed version of the full form)
    • B01 (the abbreviated form)